Gisborne (NZGS)

Aerodrome — Elev 15
New Zealand
S038.39.47.999 E177.58.41.999
Loading chart...

Current Weather

NZGS 231300Z 32004KT 20KM NCD 19/18 Q1013 RMK AUTO VATSIM USE ONLY

Published 46 minutes ago

Airport Activity

Loading chart...
Loading chart...

Positions

CallsignRadio Name / Freq / Voice Room / TypeFrequencyVoice RoomType
NZCH-B_CTR Bay Approach
119.500
nzch-b_ctr
119.500nzch-b_ctr
NZGS_TWR Gisborne Tower
127.300
nzgs_twr
127.300nzgs_twr
NZGS_ATIS Gisborne ATIS
126.400
nzgs_atis
126.400nzgs_atis

Charts